sat.trackr.live / text

‹ back to catalog

STARLINK-34793

NORAD 65064 · 2025-165J

PAYLOAD ACTIVE UNKNOWN

§ Identity

Operator
Country
US
Launch date
2025-07-31
Launch site
AFWTR
Launch vehicle
Mass (kg)
RCS (m²)

Purposes: comms

External: N2YO · Heavens-Above · Gunter

§ Orbital elements

Epoch: 2026-05-25T04:32:23.370432Z

Period
95.64 min
Inclination
97.4491°
Eccentricity
0.0002378
Mean motion
15.05659042 rev/d
Perigee alt
547.8 km
Apogee alt
551.1 km
Semi-major
6,927.6 km
B*
2.7910e-4
RAAN
222.2985°
Arg perigee
137.7360°
Mean anomaly
222.4051°
Rev number
4,630

§ Raw data

STARLINK-347931 65064U 25165J   26145.18915938  .00003972  00000+0  27910-3 0  99942 65064  97.4491 222.2985 0002378 137.7360 222.4051 15.05659042 46300

JSON: /api/v1/satellites/65064 · /tle

For live sub-satellite position, see the globe view (requires WebGL).

§ Visibility from observer

Set your observer location to see the next 7 days of passes ≥ 10°. The values pass through the URL so the page stays shareable.

No JS? Fill the form by hand. The geolocation button needs JavaScript.